Wetterdaten: Mittwoch, 29.07.2015
Datum Zeit Temp. A. Feuchte A. Luftdruck Regen Wind Richtung Richtung Sonnenschein ET UV Solar Taupunkt Windchill Windben Empfang
29.07.2015 00:02 17,7 C 68 % 1010,2 hPa 0,0 l/m 0,4 km/h (0 Bft) N-NW 347 0 min 0,000 mm 0,0 UV-I 0 W/m 11,7 C 17,7 C 4,0 km/h (1 Bft) 0,00 %
29.07.2015 00:07 17,7 C 68 % 1010,3 hPa 0,0 l/m 3,2 km/h (1 Bft) W 263 0 min 0,000 mm 0,0 UV-I 0 W/m 11,7 C 17,7 C 4,0 km/h (1 Bft) 0,00 %
29.07.2015 00:12 17,7 C 68 % 1010,2 hPa 0,0 l/m 0,0 km/h (0 Bft) O-NO 58 0 min 0,000 mm 0,0 UV-I 0 W/m 11,7 C 17,7 C 0,0 km/h (0 Bft) 0,00 %
29.07.2015 00:17 17,6 C 69 % 1010,2 hPa 0,0 l/m 0,0 km/h (0 Bft) NO 41 0 min 0,000 mm 0,0 UV-I 0 W/m 11,8 C 17,6 C 0,0 km/h (0 Bft) 0,00 %
29.07.2015 00:22 17,6 C 69 % 1010,1 hPa 0,0 l/m 0,0 km/h (0 Bft) NO 36 0 min 0,000 mm 0,0 UV-I 0 W/m 11,8 C 17,6 C 0,0 km/h (0 Bft) 0,00 %
29.07.2015 00:27 17,5 C 69 % 1010,4 hPa 0,0 l/m 0,0 km/h (0 Bft) NO 46 0 min 0,000 mm 0,0 UV-I 0 W/m 11,7 C 17,5 C 0,0 km/h (0 Bft) 0,00 %
29.07.2015 00:32 17,5 C 69 % 1010,5 hPa 0,0 l/m 0,0 km/h (0 Bft) W-SW 253 0 min 0,000 mm 0,0 UV-I 0 W/m 11,7 C 17,5 C 0,0 km/h (0 Bft) 0,00 %
29.07.2015 00:37 17,5 C 69 % 1010,4 hPa 0,0 l/m 0,0 km/h (0 Bft) SO 139 0 min 0,000 mm 0,0 UV-I 0 W/m 11,7 C 17,5 C 0,0 km/h (0 Bft) 0,00 %
29.07.2015 00:42 17,5 C 68 % 1010,4 hPa 0,0 l/m 0,0 km/h (0 Bft) N-NW 341 0 min 0,000 mm 0,0 UV-I 0 W/m 11,5 C 17,5 C 0,0 km/h (0 Bft) 0,00 %
29.07.2015 00:47 17,5 C 68 % 1010,3 hPa 0,0 l/m 1,4 km/h (1 Bft) W-SW 251 0 min 0,000 mm 0,0 UV-I 0 W/m 11,5 C 17,5 C 4,0 km/h (1 Bft) 0,00 %
29.07.2015 00:52 17,5 C 69 % 1010,3 hPa 0,0 l/m 0,0 km/h (0 Bft) N-NW 327 0 min 0,000 mm 0,0 UV-I 0 W/m 11,7 C 17,5 C 0,0 km/h (0 Bft) 0,00 %
29.07.2015 00:57 17,5 C 69 % 1010,4 hPa 0,0 l/m 0,0 km/h (0 Bft) NW 318 0 min 0,000 mm 0,0 UV-I 0 W/m 11,7 C 17,5 C 0,0 km/h (0 Bft) 0,00 %
29.07.2015 01:02 17,5 C 68 % 1010,5 hPa 0,0 l/m 4,7 km/h (1 Bft) W 261 0 min 0,000 mm 0,0 UV-I 0 W/m 11,5 C 17,5 C 7,9 km/h (2 Bft) 0,00 %
29.07.2015 01:07 17,5 C 68 % 1010,5 hPa 0,0 l/m 2,9 km/h (1 Bft) W-SW 256 0 min 0,000 mm 0,0 UV-I 0 W/m 11,5 C 17,5 C 4,0 km/h (1 Bft) 0,00 %
29.07.2015 01:12 17,5 C 68 % 1010,7 hPa 0,0 l/m 2,2 km/h (1 Bft) W-NW 297 0 min 0,000 mm 0,0 UV-I 0 W/m 11,5 C 17,5 C 7,9 km/h (2 Bft) 0,00 %
29.07.2015 01:17 17,5 C 67 % 1010,5 hPa 0,0 l/m 0,0 km/h (0 Bft) NO 55 0 min 0,000 mm 0,0 UV-I 0 W/m 11,3 C 17,5 C 0,0 km/h (0 Bft) 0,00 %
29.07.2015 01:22 17,5 C 67 % 1010,5 hPa 0,0 l/m 0,0 km/h (0 Bft) N 7 0 min 0,000 mm 0,0 UV-I 0 W/m 11,3 C 17,5 C 0,0 km/h (0 Bft) 0,00 %
29.07.2015 01:27 17,5 C 67 % 1010,4 hPa 0,0 l/m 2,9 km/h (1 Bft) NW 318 0 min 0,000 mm 0,0 UV-I 0 W/m 11,3 C 17,5 C 4,0 km/h (1 Bft) 0,00 %
29.07.2015 01:32 17,5 C 67 % 1010,7 hPa 0,0 l/m 5,4 km/h (1 Bft) W-NW 292 0 min 0,000 mm 0,0 UV-I 0 W/m 11,3 C 17,5 C 7,9 km/h (2 Bft) 0,00 %
29.07.2015 01:37 17,4 C 66 % 1011,0 hPa 0,0 l/m 0,7 km/h (0 Bft) W-SW 256 0 min 0,000 mm 0,0 UV-I 0 W/m 11,0 C 17,4 C 4,0 km/h (1 Bft) 0,00 %
29.07.2015 01:42 17,3 C 65 % 1011,0 hPa 0,0 l/m 0,7 km/h (0 Bft) N 353 0 min 0,000 mm 0,0 UV-I 0 W/m 10,7 C 17,3 C 4,0 km/h (1 Bft) 0,00 %
29.07.2015 01:47 17,2 C 66 % 1011,1 hPa 0,0 l/m 0,4 km/h (0 Bft) S 180 0 min 0,000 mm 0,0 UV-I 0 W/m 10,8 C 17,2 C 4,0 km/h (1 Bft) 0,00 %
29.07.2015 01:52 16,9 C 66 % 1011,3 hPa 0,0 l/m 1,4 km/h (1 Bft) O-NO 59 0 min 0,000 mm 0,0 UV-I 0 W/m 10,5 C 16,9 C 4,0 km/h (1 Bft) 0,00 %
29.07.2015 01:57 16,6 C 68 % 1011,4 hPa 0,0 l/m 0,0 km/h (0 Bft) N-NW 345 0 min 0,000 mm 0,0 UV-I 0 W/m 10,7 C 16,6 C 0,0 km/h (0 Bft) 0,00 %
29.07.2015 02:02 16,4 C 69 % 1011,4 hPa 0,0 l/m 0,4 km/h (0 Bft) W-SW 255 0 min 0,000 mm 0,0 UV-I 0 W/m 10,7 C 16,4 C 4,0 km/h (1 Bft) 0,00 %
29.07.2015 02:07 16,0 C 71 % 1011,5 hPa 0,0 l/m 0,0 km/h (0 Bft) NO 51 0 min 0,000 mm 0,0 UV-I 0 W/m 10,7 C 16,0 C 0,0 km/h (0 Bft) 0,00 %
29.07.2015 02:12 15,4 C 71 % 1011,8 hPa 0,0 l/m 0,0 km/h (0 Bft) NO 46 0 min 0,000 mm 0,0 UV-I 0 W/m 10,2 C 15,4 C 0,0 km/h (0 Bft) 0,00 %
29.07.2015 02:17 14,9 C 74 % 1011,8 hPa 0,0 l/m 0,0 km/h (0 Bft) O 93 0 min 0,000 mm 0,0 UV-I 0 W/m 10,3 C 14,9 C 0,0 km/h (0 Bft) 0,00 %
29.07.2015 02:22 14,6 C 75 % 1011,9 hPa 0,0 l/m 1,4 km/h (1 Bft) S 174 0 min 0,000 mm 0,0 UV-I 0 W/m 10,2 C 14,6 C 4,0 km/h (1 Bft) 0,00 %
29.07.2015 02:27 14,3 C 77 % 1012,0 hPa 0,3 l/m 0,7 km/h (0 Bft) O-NO 78 0 min 0,000 mm 0,0 UV-I 0 W/m 10,3 C 14,3 C 4,0 km/h (1 Bft) 0,00 %
29.07.2015 02:32 14,0 C 82 % 1011,9 hPa 0,3 l/m 3,2 km/h (1 Bft) W-NW 298 0 min 0,000 mm 0,0 UV-I 0 W/m 11,0 C 14,0 C 7,9 km/h (2 Bft) 0,00 %
29.07.2015 02:37 13,6 C 84 % 1012,0 hPa 0,0 l/m 0,0 km/h (0 Bft) NO 45 0 min 0,000 mm 0,0 UV-I 0 W/m 10,9 C 13,6 C 0,0 km/h (0 Bft) 0,00 %
29.07.2015 02:42 13,1 C 87 % 1012,1 hPa 0,0 l/m 2,9 km/h (1 Bft) SW 216 0 min 0,000 mm 0,0 UV-I 0 W/m 11,0 C 13,1 C 7,9 km/h (2 Bft) 0,00 %
29.07.2015 02:47 12,8 C 88 % 1012,3 hPa 0,3 l/m 5,4 km/h (1 Bft) NW 325 0 min 0,000 mm 0,0 UV-I 0 W/m 10,9 C 12,8 C 11,9 km/h (2 Bft) 0,00 %
29.07.2015 02:52 12,6 C 89 % 1012,4 hPa 0,0 l/m 0,0 km/h (0 Bft) NO 47 0 min 0,000 mm 0,0 UV-I 0 W/m 10,8 C 12,6 C 0,0 km/h (0 Bft) 0,00 %
29.07.2015 02:57 12,5 C 90 % 1012,3 hPa 0,0 l/m 1,8 km/h (1 Bft) W-SW 255 0 min 0,000 mm 0,0 UV-I 0 W/m 10,9 C 12,5 C 4,0 km/h (1 Bft) 0,00 %
29.07.2015 03:02 12,5 C 91 % 1012,4 hPa 0,0 l/m 1,4 km/h (1 Bft) W-SW 256 0 min 0,000 mm 0,0 UV-I 0 W/m 11,1 C 12,5 C 4,0 km/h (1 Bft) 0,00 %
29.07.2015 03:07 12,4 C 91 % 1012,3 hPa 0,0 l/m 0,7 km/h (0 Bft) NW 325 0 min 0,000 mm 0,0 UV-I 0 W/m 11,0 C 12,4 C 4,0 km/h (1 Bft) 0,00 %
29.07.2015 03:12 12,4 C 92 % 1012,6 hPa 0,3 l/m 5,4 km/h (1 Bft) W-SW 256 0 min 0,000 mm 0,0 UV-I 0 W/m 11,1 C 12,4 C 7,9 km/h (2 Bft) 0,00 %
29.07.2015 03:17 12,3 C 91 % 1012,7 hPa 0,0 l/m 0,4 km/h (0 Bft) N 354 0 min 0,000 mm 0,0 UV-I 0 W/m 10,9 C 12,3 C 4,0 km/h (1 Bft) 0,00 %
29.07.2015 03:22 12,3 C 92 % 1012,8 hPa 0,0 l/m 0,0 km/h (0 Bft) N 9 0 min 0,000 mm 0,0 UV-I 0 W/m 11,0 C 12,3 C 0,0 km/h (0 Bft) 0,00 %
29.07.2015 03:27 12,2 C 92 % 1012,8 hPa 0,3 l/m 0,7 km/h (0 Bft) W-NW 289 0 min 0,000 mm 0,0 UV-I 0 W/m 10,9 C 12,2 C 4,0 km/h (1 Bft) 0,00 %
29.07.2015 03:32 12,2 C 93 % 1013,0 hPa 0,0 l/m 0,7 km/h (0 Bft) NW 311 0 min 0,000 mm 0,0 UV-I 0 W/m 11,1 C 12,2 C 4,0 km/h (1 Bft) 0,00 %
29.07.2015 03:37 12,2 C 93 % 1013,1 hPa 0,3 l/m 0,7 km/h (0 Bft) W-NW 294 0 min 0,000 mm 0,0 UV-I 0 W/m 11,1 C 12,2 C 4,0 km/h (1 Bft) 0,00 %
29.07.2015 03:42 12,2 C 94 % 1013,1 hPa 0,0 l/m 4,3 km/h (1 Bft) NW 320 0 min 0,000 mm 0,0 UV-I 0 W/m 11,3 C 12,2 C 7,9 km/h (2 Bft) 0,00 %
29.07.2015 03:47 12,1 C 94 % 1013,1 hPa 0,3 l/m 0,0 km/h (0 Bft) N 356 0 min 0,000 mm 0,0 UV-I 0 W/m 11,2 C 12,1 C 0,0 km/h (0 Bft) 0,00 %
29.07.2015 03:52 12,1 C 94 % 1013,4 hPa 0,3 l/m 0,0 km/h (0 Bft) O-SO 104 0 min 0,000 mm 0,0 UV-I 0 W/m 11,2 C 12,1 C 0,0 km/h (0 Bft) 0,00 %
29.07.2015 03:57 12,1 C 94 % 1013,4 hPa 0,3 l/m 0,0 km/h (0 Bft) N-NO 25 0 min 0,000 mm 0,0 UV-I 0 W/m 11,2 C 12,1 C 0,0 km/h (0 Bft) 0,00 %
29.07.2015 04:02 12,0 C 94 % 1013,3 hPa 0,0 l/m 0,4 km/h (0 Bft) NO 56 0 min 0,000 mm 0,0 UV-I 0 W/m 11,1 C 12,0 C 4,0 km/h (1 Bft) 0,00 %
29.07.2015 04:07 11,9 C 95 % 1013,6 hPa 0,3 l/m 0,0 km/h (0 Bft) NO 36 0 min 0,000 mm 0,0 UV-I 0 W/m 11,1 C 11,9 C 0,0 km/h (0 Bft) 0,00 %
29.07.2015 04:12 11,8 C 95 % 1013,7 hPa 0,3 l/m 0,0 km/h (0 Bft) NO 49 0 min 0,000 mm 0,0 UV-I 0 W/m 11,0 C 11,8 C 0,0 km/h (0 Bft) 0,00 %
29.07.2015 04:17 11,7 C 95 % 1013,7 hPa 0,6 l/m 0,0 km/h (0 Bft) O-NO 72 0 min 0,000 mm 0,0 UV-I 0 W/m 10,9 C 11,7 C 0,0 km/h (0 Bft) 0,00 %
29.07.2015 04:22 11,6 C 95 % 1013,5 hPa 0,6 l/m 0,0 km/h (0 Bft) NO 36 0 min 0,000 mm 0,0 UV-I 0 W/m 10,8 C 11,6 C 0,0 km/h (0 Bft) 0,00 %
29.07.2015 04:27 11,5 C 95 % 1013,8 hPa 0,3 l/m 0,0 km/h (0 Bft) N 353 0 min 0,000 mm 0,0 UV-I 0 W/m 10,7 C 11,5 C 0,0 km/h (0 Bft) 0,00 %
29.07.2015 04:32 11,4 C 95 % 1013,6 hPa 0,3 l/m 0,0 km/h (0 Bft) N 7 0 min 0,000 mm 0,0 UV-I 0 W/m 10,6 C 11,4 C 0,0 km/h (0 Bft) 0,00 %
29.07.2015 04:37 11,3 C 96 % 1013,7 hPa 0,0 l/m 0,0 km/h (0 Bft) NO 50 0 min 0,000 mm 0,0 UV-I 0 W/m 10,7 C 11,3 C 0,0 km/h (0 Bft) 0,00 %
29.07.2015 04:42 11,3 C 96 % 1013,8 hPa 0,3 l/m 0,0 km/h (0 Bft) O-NO 69 0 min 0,000 mm 0,0 UV-I 0 W/m 10,7 C 11,3 C 0,0 km/h (0 Bft) 0,00 %
29.07.2015 04:47 11,3 C 96 % 1013,5 hPa 0,0 l/m 0,0 km/h (0 Bft) N-NO 31 0 min 0,000 mm 0,0 UV-I 0 W/m 10,7 C 11,3 C 0,0 km/h (0 Bft) 0,00 %
29.07.2015 04:52 11,3 C 97 % 1013,7 hPa 0,3 l/m 0,0 km/h (0 Bft) NO 44 0 min 0,000 mm 0,0 UV-I 0 W/m 10,8 C 11,3 C 0,0 km/h (0 Bft) 0,00 %
29.07.2015 04:57 11,3 C 97 % 1013,6 hPa 0,0 l/m 0,0 km/h (0 Bft) N 357 0 min 0,000 mm 0,0 UV-I 0 W/m 10,8 C 11,3 C 0,0 km/h (0 Bft) 0,00 %
29.07.2015 05:02 11,3 C 97 % 1013,7 hPa 0,0 l/m 0,0 km/h (0 Bft) W-NW 290 0 min 0,000 mm 0,0 UV-I 0 W/m 10,8 C 11,3 C 0,0 km/h (0 Bft) 0,00 %
29.07.2015 05:07 11,4 C 97 % 1013,7 hPa 0,0 l/m 0,0 km/h (0 Bft) N 354 0 min 0,000 mm 0,0 UV-I 0 W/m 10,9 C 11,4 C 0,0 km/h (0 Bft) 0,00 %
29.07.2015 05:12 11,4 C 97 % 1013,4 hPa 0,0 l/m 0,0 km/h (0 Bft) S 183 0 min 0,000 mm 0,0 UV-I 0 W/m 10,9 C 11,4 C 0,0 km/h (0 Bft) 0,00 %
29.07.2015 05:17 11,4 C 97 % 1013,3 hPa 0,0 l/m 0,0 km/h (0 Bft) N 357 0 min 0,000 mm 0,0 UV-I 0 W/m 10,9 C 11,4 C 0,0 km/h (0 Bft) 0,00 %
29.07.2015 05:22 11,4 C 97 % 1013,5 hPa 0,0 l/m 0,0 km/h (0 Bft) W-NW 287 0 min 0,000 mm 0,0 UV-I 0 W/m 10,9 C 11,4 C 0,0 km/h (0 Bft) 0,00 %
29.07.2015 05:27 11,3 C 97 % 1013,6 hPa 0,0 l/m 0,0 km/h (0 Bft) N-NW 343 0 min 0,000 mm 0,0 UV-I 0 W/m 10,8 C 11,3 C 0,0 km/h (0 Bft) 0,00 %
29.07.2015 05:32 11,3 C 97 % 1013,8 hPa 0,0 l/m 0,0 km/h (0 Bft) NO 44 0 min 0,000 mm 0,0 UV-I 0 W/m 10,8 C 11,3 C 0,0 km/h (0 Bft) 0,00 %
29.07.2015 05:37 11,3 C 97 % 1013,8 hPa 0,0 l/m 0,4 km/h (0 Bft) NO 56 0 min 0,000 mm 0,0 UV-I 0 W/m 10,8 C 11,3 C 4,0 km/h (1 Bft) 0,00 %
29.07.2015 05:42 11,3 C 97 % 1013,7 hPa 0,0 l/m 0,4 km/h (0 Bft) O 100 0 min 0,000 mm 0,0 UV-I 0 W/m 10,8 C 11,3 C 4,0 km/h (1 Bft) 0,00 %
29.07.2015 05:47 11,3 C 96 % 1013,8 hPa 0,0 l/m 0,0 km/h (0 Bft) NO 44 0 min 0,000 mm 0,0 UV-I 0 W/m 10,7 C 11,3 C 0,0 km/h (0 Bft) 0,00 %
29.07.2015 05:52 11,3 C 96 % 1013,7 hPa 0,0 l/m 0,0 km/h (0 Bft) NO 42 0 min 0,000 mm 0,0 UV-I 0 W/m 10,7 C 11,3 C 0,0 km/h (0 Bft) 0,00 %
29.07.2015 05:57 11,3 C 96 % 1013,7 hPa 0,3 l/m 0,0 km/h (0 Bft) N-NO 32 0 min 0,000 mm 0,0 UV-I 0 W/m 10,7 C 11,3 C 0,0 km/h (0 Bft) 0,00 %
29.07.2015 06:02 11,3 C 96 % 1013,7 hPa 0,0 l/m 0,0 km/h (0 Bft) NW 317 0 min 0,000 mm 0,0 UV-I 0 W/m 10,7 C 11,3 C 0,0 km/h (0 Bft) 0,00 %
29.07.2015 06:07 11,3 C 96 % 1013,5 hPa 0,0 l/m 0,0 km/h (0 Bft) N-NW 333 0 min 0,000 mm 0,0 UV-I 3 W/m 10,7 C 11,3 C 0,0 km/h (0 Bft) 0,00 %
29.07.2015 06:12 11,3 C 96 % 1013,4 hPa 0,0 l/m 0,0 km/h (0 Bft) N-NO 26 0 min 0,000 mm 0,0 UV-I 7 W/m 10,7 C 11,3 C 0,0 km/h (0 Bft) 0,00 %
29.07.2015 06:17 11,4 C 96 % 1013,5 hPa 0,0 l/m 0,0 km/h (0 Bft) NO 45 0 min 0,000 mm 0,0 UV-I 5 W/m 10,8 C 11,4 C 0,0 km/h (0 Bft) 0,00 %
29.07.2015 06:22 11,4 C 96 % 1013,4 hPa 0,0 l/m 0,0 km/h (0 Bft) N 358 0 min 0,000 mm 0,0 UV-I 8 W/m 10,8 C 11,4 C 0,0 km/h (0 Bft) 0,00 %
29.07.2015 06:27 11,4 C 96 % 1013,4 hPa 0,0 l/m 0,0 km/h (0 Bft) N 357 0 min 0,000 mm 0,0 UV-I 11 W/m 10,8 C 11,4 C 0,0 km/h (0 Bft) 0,00 %
29.07.2015 06:32 11,4 C 96 % 1013,4 hPa 0,0 l/m 0,0 km/h (0 Bft) O-NO 60 0 min 0,000 mm 0,0 UV-I 22 W/m 10,8 C 11,4 C 0,0 km/h (0 Bft) 0,00 %
29.07.2015 06:37 11,4 C 96 % 1013,7 hPa 0,0 l/m 0,0 km/h (0 Bft) N 359 0 min 0,000 mm 0,0 UV-I 21 W/m 10,8 C 11,4 C 0,0 km/h (0 Bft) 0,00 %
29.07.2015 06:42 11,5 C 96 % 1013,6 hPa 0,0 l/m 0,0 km/h (0 Bft) NO 36 0 min 0,000 mm 0,0 UV-I 24 W/m 10,9 C 11,5 C 0,0 km/h (0 Bft) 0,00 %
29.07.2015 06:47 11,5 C 96 % 1013,5 hPa 0,0 l/m 0,0 km/h (0 Bft) NO 38 0 min 0,000 mm 0,0 UV-I 17 W/m 10,9 C 11,5 C 0,0 km/h (0 Bft) 0,00 %
29.07.2015 06:52 11,5 C 96 % 1013,4 hPa 0,0 l/m 0,0 km/h (0 Bft) NO 36 0 min 0,000 mm 0,0 UV-I 22 W/m 10,9 C 11,5 C 0,0 km/h (0 Bft) 0,00 %
29.07.2015 06:57 11,5 C 96 % 1013,3 hPa 0,0 l/m 0,0 km/h (0 Bft) N-NO 27 0 min 0,000 mm 0,0 UV-I 23 W/m 10,9 C 11,5 C 0,0 km/h (0 Bft) 0,00 %
29.07.2015 07:02 11,6 C 96 % 1013,3 hPa 0,0 l/m 0,0 km/h (0 Bft) N-NW 346 0 min 0,000 mm 0,0 UV-I 30 W/m 11,0 C 11,6 C 0,0 km/h (0 Bft) 0,00 %
29.07.2015 07:07 11,6 C 96 % 1013,1 hPa 0,0 l/m 0,0 km/h (0 Bft) N 357 0 min 0,000 mm 0,0 UV-I 45 W/m 11,0 C 11,6 C 0,0 km/h (0 Bft) 0,00 %
29.07.2015 07:12 11,6 C 96 % 1013,3 hPa 0,0 l/m 0,0 km/h (0 Bft) N 356 0 min 0,000 mm 0,0 UV-I 45 W/m 11,0 C 11,6 C 0,0 km/h (0 Bft) 0,00 %
29.07.2015 07:17 11,7 C 97 % 1013,2 hPa 0,0 l/m 0,0 km/h (0 Bft) N-NO 23 0 min 0,000 mm 0,0 UV-I 44 W/m 11,2 C 11,7 C 0,0 km/h (0 Bft) 0,00 %
29.07.2015 07:22 11,8 C 97 % 1013,1 hPa 0,0 l/m 0,0 km/h (0 Bft) N 1 0 min 0,000 mm 0,0 UV-I 45 W/m 11,3 C 11,8 C 0,0 km/h (0 Bft) 0,00 %
29.07.2015 07:27 11,9 C 97 % 1013,2 hPa 0,0 l/m 0,0 km/h (0 Bft) N-NO 25 0 min 0,000 mm 0,0 UV-I 37 W/m 11,4 C 11,9 C 0,0 km/h (0 Bft) 0,00 %
29.07.2015 07:32 11,9 C 96 % 1013,3 hPa 0,0 l/m 0,0 km/h (0 Bft) N-NO 28 0 min 0,000 mm 0,0 UV-I 53 W/m 11,3 C 11,9 C 0,0 km/h (0 Bft) 0,00 %
29.07.2015 07:37 11,9 C 96 % 1013,1 hPa 0,0 l/m 0,0 km/h (0 Bft) NO 38 0 min 0,000 mm 1,0 UV-I 76 W/m 11,3 C 11,9 C 0,0 km/h (0 Bft) 0,00 %
29.07.2015 07:42 12,1 C 96 % 1013,2 hPa 0,0 l/m 0,0 km/h (0 Bft) NO 41 0 min 0,000 mm 1,0 UV-I 90 W/m 11,5 C 12,1 C 0,0 km/h (0 Bft) 0,00 %
29.07.2015 07:47 12,2 C 96 % 1013,1 hPa 0,0 l/m 0,0 km/h (0 Bft) NO 34 0 min 0,000 mm 1,0 UV-I 114 W/m 11,6 C 12,2 C 0,0 km/h (0 Bft) 0,00 %
29.07.2015 07:52 12,4 C 96 % 1013,2 hPa 0,0 l/m 0,0 km/h (0 Bft) NO 34 0 min 0,000 mm 1,0 UV-I 95 W/m 11,8 C 12,4 C 0,0 km/h (0 Bft) 0,00 %
29.07.2015 07:57 12,6 C 95 % 1013,1 hPa 0,0 l/m 0,0 km/h (0 Bft) NO 51 0 min 0,000 mm 1,0 UV-I 91 W/m 11,8 C 12,6 C 0,0 km/h (0 Bft) 0,00 %
29.07.2015 08:02 12,6 C 95 % 1013,0 hPa 0,0 l/m 0,0 km/h (0 Bft) N-NO 31 0 min 0,000 mm 1,0 UV-I 92 W/m 11,8 C 12,6 C 0,0 km/h (0 Bft) 0,00 %
29.07.2015 08:07 12,7 C 95 % 1013,0 hPa 0,0 l/m 0,0 km/h (0 Bft) N-NO 33 0 min 0,000 mm 1,0 UV-I 144 W/m 11,9 C 12,7 C 0,0 km/h (0 Bft) 0,00 %
29.07.2015 08:12 12,8 C 93 % 1013,1 hPa 0,0 l/m 0,0 km/h (0 Bft) NO 47 0 min 0,000 mm 1,0 UV-I 111 W/m 11,7 C 12,8 C 0,0 km/h (0 Bft) 0,00 %
29.07.2015 08:17 12,9 C 93 % 1013,0 hPa 0,0 l/m 0,0 km/h (0 Bft) NO 37 0 min 0,000 mm 1,0 UV-I 134 W/m 11,8 C 12,9 C 0,0 km/h (0 Bft) 0,00 %
29.07.2015 08:22 13,1 C 93 % 1013,2 hPa 0,0 l/m 0,0 km/h (0 Bft) N-NO 29 0 min 0,000 mm 1,0 UV-I 171 W/m 12,0 C 13,1 C 0,0 km/h (0 Bft) 0,00 %
29.07.2015 08:27 13,4 C 92 % 1012,9 hPa 0,0 l/m 0,0 km/h (0 Bft) NO 47 0 min 0,000 mm 1,0 UV-I 212 W/m 12,1 C 13,4 C 0,0 km/h (0 Bft) 0,00 %
29.07.2015 08:32 13,7 C 90 % 1012,9 hPa 0,0 l/m 0,0 km/h (0 Bft) NO 47 0 min 0,000 mm 1,0 UV-I 194 W/m 12,1 C 13,7 C 0,0 km/h (0 Bft) 0,00 %
29.07.2015 08:37 13,9 C 89 % 1012,9 hPa 0,0 l/m 0,0 km/h (0 Bft) O-NO 58 0 min 0,000 mm 1,0 UV-I 155 W/m 12,1 C 13,9 C 0,0 km/h (0 Bft) 0,00 %
29.07.2015 08:42 14,0 C 88 % 1012,8 hPa 0,0 l/m 0,0 km/h (0 Bft) NO 40 0 min 0,000 mm 1,0 UV-I 159 W/m 12,0 C 14,0 C 0,0 km/h (0 Bft) 0,00 %
29.07.2015 08:47 14,1 C 87 % 1012,7 hPa 0,0 l/m 0,0 km/h (0 Bft) NO 45 0 min 0,000 mm 1,0 UV-I 153 W/m 12,0 C 14,1 C 0,0 km/h (0 Bft) 0,00 %
29.07.2015 08:52 14,1 C 86 % 1012,9 hPa 0,0 l/m 0,0 km/h (0 Bft) N-NO 30 0 min 0,000 mm 1,0 UV-I 171 W/m 11,8 C 14,1 C 0,0 km/h (0 Bft) 0,00 %
29.07.2015 08:57 14,2 C 87 % 1012,7 hPa 0,0 l/m 0,0 km/h (0 Bft) NO 45 0 min 0,000 mm 1,0 UV-I 257 W/m 12,1 C 14,2 C 0,0 km/h (0 Bft) 0,00 %
29.07.2015 09:02 14,3 C 86 % 1012,6 hPa 0,0 l/m 0,0 km/h (0 Bft) O-NO 61 5 min 0,000 mm 1,0 UV-I 322 W/m 12,0 C 14,3 C 0,0 km/h (0 Bft) 0,00 %
29.07.2015 09:07 14,6 C 83 % 1012,7 hPa 0,0 l/m 0,0 km/h (0 Bft) O-NO 57 5 min 0,000 mm 2,0 UV-I 334 W/m 11,7 C 14,6 C 0,0 km/h (0 Bft) 0,00 %
29.07.2015 09:12 15,0 C 81 % 1012,5 hPa 0,0 l/m 0,0 km/h (0 Bft) O-SO 117 5 min 0,000 mm 2,0 UV-I 392 W/m 11,8 C 15,0 C 0,0 km/h (0 Bft) 0,00 %
29.07.2015 09:17 15,4 C 80 % 1012,4 hPa 0,0 l/m 0,0 km/h (0 Bft) N-NO 25 5 min 0,000 mm 2,0 UV-I 384 W/m 12,0 C 15,4 C 0,0 km/h (0 Bft) 0,00 %
29.07.2015 09:22 15,7 C 78 % 1012,6 hPa 0,0 l/m 0,0 km/h (0 Bft) NO 38 0 min 0,000 mm 2,0 UV-I 310 W/m 11,9 C 15,7 C 0,0 km/h (0 Bft) 0,00 %
29.07.2015 09:27 15,9 C 78 % 1012,6 hPa 0,0 l/m 0,0 km/h (0 Bft) NO 42 5 min 0,000 mm 2,0 UV-I 384 W/m 12,1 C 15,9 C 0,0 km/h (0 Bft) 0,00 %
29.07.2015 09:32 16,2 C 78 % 1012,5 hPa 0,0 l/m 0,0 km/h (0 Bft) NO 51 5 min 0,000 mm 2,0 UV-I 336 W/m 12,4 C 16,2 C 0,0 km/h (0 Bft) 0,00 %
29.07.2015 09:37 16,3 C 75 % 1012,4 hPa 0,0 l/m 0,0 km/h (0 Bft) NO 38 0 min 0,000 mm 2,0 UV-I 277 W/m 11,9 C 16,3 C 0,0 km/h (0 Bft) 0,00 %
29.07.2015 09:42 16,2 C 77 % 1012,2 hPa 0,0 l/m 0,0 km/h (0 Bft) N-NO 28 5 min 0,000 mm 3,0 UV-I 636 W/m 12,2 C 16,2 C 0,0 km/h (0 Bft) 0,00 %
29.07.2015 09:47 16,2 C 75 % 1012,2 hPa 0,0 l/m 0,0 km/h (0 Bft) NO 46 5 min 0,000 mm 2,0 UV-I 567 W/m 11,8 C 16,2 C 0,0 km/h (0 Bft) 0,00 %
29.07.2015 09:52 16,5 C 73 % 1012,2 hPa 0,0 l/m 0,7 km/h (0 Bft) O-NO 73 5 min 0,000 mm 2,0 UV-I 509 W/m 11,6 C 16,5 C 4,0 km/h (1 Bft) 0,00 %
29.07.2015 09:57 17,0 C 69 % 1012,3 hPa 0,0 l/m 2,2 km/h (1 Bft) O-SO 112 5 min 0,000 mm 2,0 UV-I 490 W/m 11,3 C 17,0 C 4,0 km/h (1 Bft) 0,00 %
29.07.2015 10:02 17,7 C 67 % 1012,2 hPa 0,0 l/m 0,0 km/h (0 Bft) O 82 0 min 0,000 mm 2,0 UV-I 316 W/m 11,5 C 17,7 C 0,0 km/h (0 Bft) 0,00 %
29.07.2015 10:07 17,9 C 69 % 1011,8 hPa 0,0 l/m 0,0 km/h (0 Bft) O-NO 63 5 min 0,000 mm 2,0 UV-I 516 W/m 12,1 C 17,9 C 0,0 km/h (0 Bft) 0,00 %
29.07.2015 10:12 17,7 C 68 % 1011,9 hPa 0,0 l/m 0,0 km/h (0 Bft) N-NO 33 5 min 0,000 mm 3,0 UV-I 587 W/m 11,7 C 17,7 C 0,0 km/h (0 Bft) 0,00 %
29.07.2015 10:17 17,8 C 67 % 1011,9 hPa 0,0 l/m 0,0 km/h (0 Bft) NO 41 5 min 0,000 mm 3,0 UV-I 540 W/m 11,6 C 17,8 C 0,0 km/h (0 Bft) 0,00 %
29.07.2015 10:22 18,2 C 62 % 1011,9 hPa 0,0 l/m 0,0 km/h (0 Bft) N 354 5 min 0,000 mm 2,0 UV-I 453 W/m 10,8 C 18,2 C 0,0 km/h (0 Bft) 0,00 %
29.07.2015 10:27 18,6 C 59 % 1011,9 hPa 0,0 l/m 0,0 km/h (0 Bft) N-NO 20 5 min 0,000 mm 3,0 UV-I 605 W/m 10,4 C 18,6 C 0,0 km/h (0 Bft) 0,00 %
29.07.2015 10:32 18,9 C 60 % 1011,8 hPa 0,0 l/m 0,0 km/h (0 Bft) N-NO 20 5 min 0,000 mm 3,0 UV-I 637 W/m 11,0 C 18,9 C 0,0 km/h (0 Bft) 0,00 %
29.07.2015 10:37 19,3 C 60 % 1011,7 hPa 0,0 l/m 0,0 km/h (0 Bft) N-NO 31 5 min 0,000 mm 3,0 UV-I 695 W/m 11,3 C 19,3 C 0,0 km/h (0 Bft) 0,00 %
29.07.2015 10:42 19,7 C 61 % 1011,6 hPa 0,0 l/m 0,0 km/h (0 Bft) N-NO 27 5 min 0,000 mm 4,0 UV-I 715 W/m 12,0 C 19,7 C 0,0 km/h (0 Bft) 0,00 %
29.07.2015 10:47 19,9 C 60 % 1011,4 hPa 0,0 l/m 0,7 km/h (0 Bft) O-SO 110 5 min 0,000 mm 3,0 UV-I 713 W/m 11,9 C 19,9 C 4,0 km/h (1 Bft) 0,00 %
29.07.2015 10:52 20,1 C 59 % 1011,4 hPa 0,0 l/m 5,4 km/h (1 Bft) SO 142 5 min 0,000 mm 4,0 UV-I 703 W/m 11,8 C 20,1 C 7,9 km/h (2 Bft) 0,00 %
29.07.2015 10:57 20,5 C 59 % 1011,4 hPa 0,0 l/m 0,0 km/h (0 Bft) N-NO 33 5 min 0,000 mm 4,0 UV-I 722 W/m 12,2 C 20,5 C 0,0 km/h (0 Bft) 0,00 %
29.07.2015 11:02 20,6 C 60 % 1011,5 hPa 0,0 l/m 0,0 km/h (0 Bft) N-NO 27 5 min 0,000 mm 3,0 UV-I 494 W/m 12,6 C 20,6 C 0,0 km/h (0 Bft) 0,00 %
29.07.2015 11:07 20,4 C 59 % 1011,3 hPa 0,0 l/m 0,4 km/h (0 Bft) N-NO 26 5 min 0,000 mm 4,0 UV-I 694 W/m 12,1 C 20,4 C 4,0 km/h (1 Bft) 0,00 %
29.07.2015 11:12 20,6 C 55 % 1011,3 hPa 0,0 l/m 0,0 km/h (0 Bft) NO 43 5 min 0,000 mm 4,0 UV-I 798 W/m 11,2 C 20,6 C 0,0 km/h (0 Bft) 0,00 %
29.07.2015 11:17 21,1 C 54 % 1011,1 hPa 0,0 l/m 0,0 km/h (0 Bft) O-NO 71 5 min 0,000 mm 5,0 UV-I 815 W/m 11,4 C 21,1 C 0,0 km/h (0 Bft) 0,00 %
29.07.2015 11:22 21,3 C 54 % 1011,1 hPa 0,0 l/m 0,0 km/h (0 Bft) NO 45 5 min 0,000 mm 5,0 UV-I 1127 W/m 11,6 C 21,3 C 0,0 km/h (0 Bft) 0,00 %
29.07.2015 11:27 21,7 C 54 % 1011,0 hPa 0,0 l/m 0,0 km/h (0 Bft) N 350 5 min 0,000 mm 4,0 UV-I 824 W/m 12,0 C 21,7 C 0,0 km/h (0 Bft) 0,00 %
29.07.2015 11:32 22,1 C 53 % 1010,9 hPa 0,0 l/m 0,4 km/h (0 Bft) O 91 5 min 0,000 mm 2,0 UV-I 445 W/m 12,1 C 22,1 C 4,0 km/h (1 Bft) 0,00 %
29.07.2015 11:37 21,7 C 56 % 1010,6 hPa 0,0 l/m 0,0 km/h (0 Bft) NO 40 5 min 0,000 mm 3,0 UV-I 630 W/m 12,5 C 21,7 C 0,0 km/h (0 Bft) 0,00 %
29.07.2015 11:42 21,0 C 58 % 1010,7 hPa 0,0 l/m 1,4 km/h (1 Bft) O-NO 70 5 min 0,000 mm 3,0 UV-I 581 W/m 12,4 C 21,0 C 4,0 km/h (1 Bft) 0,00 %
29.07.2015 11:47 20,8 C 53 % 1010,7 hPa 0,0 l/m 0,0 km/h (0 Bft) NO 50 5 min 0,000 mm 3,0 UV-I 527 W/m 10,9 C 20,8 C 0,0 km/h (0 Bft) 0,00 %
29.07.2015 11:52 20,8 C 59 % 1010,7 hPa 0,0 l/m 0,0 km/h (0 Bft) N-NW 330 5 min 0,000 mm 4,0 UV-I 720 W/m 12,5 C 20,8 C 0,0 km/h (0 Bft) 0,00 %
29.07.2015 11:57 20,8 C 55 % 1010,8 hPa 0,0 l/m 0,0 km/h (0 Bft) NO 42 5 min 0,000 mm 3,0 UV-I 599 W/m 11,4 C 20,8 C 0,0 km/h (0 Bft) 0,00 %
29.07.2015 12:02 20,9 C 56 % 1010,7 hPa 0,0 l/m 0,0 km/h (0 Bft) N-NO 28 0 min 0,000 mm 2,0 UV-I 376 W/m 11,8 C 20,9 C 0,0 km/h (0 Bft) 0,00 %
29.07.2015 12:07 20,8 C 54 % 1010,9 hPa 0,0 l/m 0,0 km/h (0 Bft) NW 310 5 min 0,000 mm 2,0 UV-I 478 W/m 11,1 C 20,8 C 0,0 km/h (0 Bft) 0,00 %
29.07.2015 12:12 20,6 C 55 % 1010,6 hPa 0,0 l/m 1,8 km/h (1 Bft) O-SO 103 5 min 0,000 mm 4,0 UV-I 641 W/m 11,2 C 20,6 C 4,0 km/h (1 Bft) 0,00 %
29.07.2015 12:17 20,7 C 52 % 1010,3 hPa 0,0 l/m 0,0 km/h (0 Bft) NO 55 5 min 0,000 mm 4,0 UV-I 718 W/m 10,5 C 20,7 C 0,0 km/h (0 Bft) 0,00 %
29.07.2015 12:22 21,0 C 54 % 1010,4 hPa 0,0 l/m 0,4 km/h (0 Bft) O-SO 116 5 min 0,000 mm 4,0 UV-I 649 W/m 11,3 C 21,0 C 4,0 km/h (1 Bft) 0,00 %
29.07.2015 12:27 21,1 C 56 % 1010,3 hPa 0,0 l/m 2,2 km/h (1 Bft) O-SO 115 5 min 0,000 mm 5,0 UV-I 820 W/m 12,0 C 21,1 C 4,0 km/h (1 Bft) 0,00 %
29.07.2015 12:32 21,4 C 52 % 1010,1 hPa 0,0 l/m 0,0 km/h (0 Bft) NO 40 5 min 0,000 mm 3,0 UV-I 612 W/m 11,1 C 21,4 C 0,0 km/h (0 Bft) 0,00 %
29.07.2015 12:37 21,8 C 52 % 1010,2 hPa 0,0 l/m 3,2 km/h (1 Bft) O 99 5 min 0,000 mm 3,0 UV-I 605 W/m 11,5 C 21,8 C 7,9 km/h (2 Bft) 0,00 %
29.07.2015 12:42 21,7 C 54 % 1010,2 hPa 0,0 l/m 0,0 km/h (0 Bft) O-NO 63 5 min 0,000 mm 4,0 UV-I 606 W/m 12,0 C 21,7 C 0,0 km/h (0 Bft) 0,00 %
29.07.2015 12:47 21,1 C 56 % 1010,1 hPa 0,0 l/m 0,7 km/h (0 Bft) O-NO 76 5 min 0,000 mm 4,0 UV-I 721 W/m 12,0 C 21,1 C 4,0 km/h (1 Bft) 0,00 %
29.07.2015 12:52 20,9 C 54 % 1010,0 hPa 0,0 l/m 3,2 km/h (1 Bft) SO 141 5 min 0,000 mm 6,0 UV-I 1003 W/m 11,2 C 20,9 C 7,9 km/h (2 Bft) 0,00 %
29.07.2015 12:57 21,3 C 51 % 1009,9 hPa 0,0 l/m 0,0 km/h (0 Bft) O 92 5 min 0,000 mm 4,0 UV-I 806 W/m 10,7 C 21,3 C 0,0 km/h (0 Bft) 0,00 %
29.07.2015 13:02 21,7 C 50 % 1009,7 hPa 0,0 l/m 0,0 km/h (0 Bft) S 176 5 min 0,000 mm 5,0 UV-I 756 W/m 10,8 C 21,7 C 0,0 km/h (0 Bft) 0,00 %
29.07.2015 13:07 21,7 C 51 % 1009,6 hPa 0,0 l/m 0,0 km/h (0 Bft) NO 49 5 min 0,000 mm 4,0 UV-I 645 W/m 11,1 C 21,7 C 0,0 km/h (0 Bft) 0,00 %
29.07.2015 13:13 21,7 C 54 % 1009,6 hPa 0,0 l/m 3,2 km/h (1 Bft) O-NO 76 6 min 0,000 mm 5,0 UV-I 852 W/m 12,0 C 21,7 C 7,9 km/h (2 Bft) 0,00 %
29.07.2015 13:18 21,7 C 53 % 1009,5 hPa 0,0 l/m 0,0 km/h (0 Bft) S-SW 201 5 min 0,000 mm 3,0 UV-I 497 W/m 11,7 C 21,7 C 0,0 km/h (0 Bft) 0,00 %
29.07.2015 13:23 21,5 C 53 % 1009,5 hPa 0,0 l/m 0,0 km/h (0 Bft) O-NO 63 5 min 0,000 mm 4,0 UV-I 719 W/m 11,5 C 21,5 C 0,0 km/h (0 Bft) 0,00 %
29.07.2015 13:28 21,3 C 53 % 1009,6 hPa 0,0 l/m 0,7 km/h (0 Bft) NO 54 5 min 0,000 mm 4,0 UV-I 671 W/m 11,3 C 21,3 C 4,0 km/h (1 Bft) 0,00 %
29.07.2015 13:33 21,3 C 54 % 1009,6 hPa 0,0 l/m 0,0 km/h (0 Bft) N-NO 24 5 min 0,000 mm 4,0 UV-I 796 W/m 11,6 C 21,3 C 0,0 km/h (0 Bft) 0,00 %
29.07.2015 13:38 21,4 C 54 % 1009,5 hPa 0,0 l/m 0,0 km/h (0 Bft) NO 52 5 min 0,000 mm 5,0 UV-I 948 W/m 11,7 C 21,4 C 0,0 km/h (0 Bft) 0,00 %
29.07.2015 13:43 21,5 C 52 % 1009,5 hPa 0,0 l/m 0,7 km/h (0 Bft) O 81 5 min 0,000 mm 5,0 UV-I 822 W/m 11,2 C 21,5 C 4,0 km/h (1 Bft) 0,00 %
29.07.2015 13:48 21,7 C 53 % 1009,4 hPa 0,0 l/m 4,3 km/h (1 Bft) O 91 5 min 0,000 mm 5,0 UV-I 990 W/m 11,7 C 21,7 C 7,9 km/h (2 Bft) 0,00 %
29.07.2015 13:53 21,7 C 54 % 1009,3 hPa 0,0 l/m 0,0 km/h (0 Bft) NO 35 5 min 0,000 mm 4,0 UV-I 860 W/m 12,0 C 21,7 C 0,0 km/h (0 Bft) 0,00 %
29.07.2015 13:58 21,8 C 51 % 1009,1 hPa 0,0 l/m 2,9 km/h (1 Bft) O 100 5 min 0,000 mm 4,0 UV-I 884 W/m 11,2 C 21,8 C 4,0 km/h (1 Bft) 0,00 %
29.07.2015 14:03 22,1 C 51 % 1009,0 hPa 0,0 l/m 1,8 km/h (1 Bft) O-NO 69 5 min 0,000 mm 4,0 UV-I 683 W/m 11,5 C 22,1 C 4,0 km/h (1 Bft) 0,00 %
29.07.2015 14:08 22,1 C 53 % 1009,0 hPa 0,0 l/m 1,8 km/h (1 Bft) O 82 5 min 0,000 mm 5,0 UV-I 924 W/m 12,1 C 22,1 C 4,0 km/h (1 Bft) 0,00 %
29.07.2015 14:13 21,9 C 53 % 1009,1 hPa 0,0 l/m 0,4 km/h (0 Bft) NO 39 5 min 0,000 mm 4,0 UV-I 771 W/m 11,9 C 21,9 C 4,0 km/h (1 Bft) 0,00 %
29.07.2015 14:18 21,7 C 53 % 1009,0 hPa 0,0 l/m 1,8 km/h (1 Bft) O-NO 60 5 min 0,000 mm 4,0 UV-I 758 W/m 11,7 C 21,7 C 4,0 km/h (1 Bft) 0,00 %
29.07.2015 14:23 21,6 C 53 % 1009,1 hPa 0,0 l/m 2,2 km/h (1 Bft) O-SO 113 5 min 0,000 mm 4,0 UV-I 739 W/m 11,6 C 21,6 C 4,0 km/h (1 Bft) 0,00 %
29.07.2015 14:28 21,7 C 53 % 1008,7 hPa 0,0 l/m 4,3 km/h (1 Bft) O-NO 70 5 min 0,000 mm 4,0 UV-I 690 W/m 11,7 C 21,7 C 7,9 km/h (2 Bft) 0,00 %
29.07.2015 14:33 21,8 C 52 % 1008,7 hPa 0,0 l/m 3,2 km/h (1 Bft) O 90 0 min 0,000 mm 2,0 UV-I 398 W/m 11,5 C 21,8 C 4,0 km/h (1 Bft) 0,00 %
29.07.2015 14:38 22,0 C 53 % 1008,7 hPa 0,0 l/m 0,0 km/h (0 Bft) O 101 5 min 0,000 mm 2,0 UV-I 498 W/m 12,0 C 22,0 C 0,0 km/h (0 Bft) 0,00 %
29.07.2015 14:43 22,1 C 51 % 1008,8 hPa 0,0 l/m 1,8 km/h (1 Bft) NO 41 5 min 0,000 mm 3,0 UV-I 647 W/m 11,5 C 22,1 C 4,0 km/h (1 Bft) 0,00 %
29.07.2015 14:48 22,1 C 52 % 1008,7 hPa 0,0 l/m 4,3 km/h (1 Bft) O-SO 108 5 min 0,000 mm 5,0 UV-I 935 W/m 11,8 C 22,1 C 7,9 km/h (2 Bft) 0,00 %
29.07.2015 14:53 22,2 C 53 % 1008,7 hPa 0,0 l/m 4,0 km/h (1 Bft) SO 129 5 min 0,000 mm 4,0 UV-I 856 W/m 12,2 C 22,2 C 4,0 km/h (1 Bft) 0,00 %
29.07.2015 14:58 22,4 C 53 % 1008,7 hPa 0,0 l/m 1,4 km/h (1 Bft) NO 56 5 min 0,000 mm 4,0 UV-I 942 W/m 12,3 C 22,4 C 4,0 km/h (1 Bft) 0,00 %
29.07.2015 15:03 22,5 C 52 % 1008,7 hPa 0,0 l/m 0,0 km/h (0 Bft) NO 47 5 min 0,000 mm 3,0 UV-I 765 W/m 12,1 C 22,5 C 0,0 km/h (0 Bft) 0,00 %
29.07.2015 15:08 22,5 C 52 % 1008,5 hPa 0,0 l/m 1,4 km/h (1 Bft) O-NO 75 5 min 0,000 mm 4,0 UV-I 967 W/m 12,1 C 22,5 C 4,0 km/h (1 Bft) 0,00 %
29.07.2015 15:13 22,6 C 50 % 1008,5 hPa 0,0 l/m 0,0 km/h (0 Bft) O-NO 76 5 min 0,000 mm 4,0 UV-I 1085 W/m 11,6 C 22,6 C 0,0 km/h (0 Bft) 0,00 %
29.07.2015 15:18 23,0 C 47 % 1008,5 hPa 0,0 l/m 0,4 km/h (0 Bft) O-NO 72 5 min 0,000 mm 3,0 UV-I 701 W/m 11,1 C 23,0 C 4,0 km/h (1 Bft) 0,00 %
29.07.2015 15:23 23,2 C 50 % 1008,5 hPa 0,0 l/m 9,4 km/h (2 Bft) SO 143 5 min 0,000 mm 2,0 UV-I 496 W/m 12,2 C 22,3 C 11,9 km/h (2 Bft) 0,00 %
29.07.2015 15:28 22,8 C 52 % 1008,3 hPa 0,0 l/m 0,0 km/h (0 Bft) O 82 5 min 0,000 mm 3,0 UV-I 635 W/m 12,4 C 22,8 C 0,0 km/h (0 Bft) 0,00 %
29.07.2015 15:33 22,6 C 48 % 1008,4 hPa 0,0 l/m 0,7 km/h (0 Bft) O 96 5 min 0,000 mm 3,0 UV-I 819 W/m 11,0 C 22,6 C 4,0 km/h (1 Bft) 0,00 %
29.07.2015 15:38 23,1 C 46 % 1008,3 hPa 0,0 l/m 1,4 km/h (1 Bft) NO 45 5 min 0,000 mm 4,0 UV-I 960 W/m 10,8 C 23,1 C 4,0 km/h (1 Bft) 0,00 %
29.07.2015 15:43 23,6 C 47 % 1008,3 hPa 0,0 l/m 0,7 km/h (0 Bft) O-NO 76 5 min 0,000 mm 3,0 UV-I 856 W/m 11,6 C 23,6 C 4,0 km/h (1 Bft) 0,00 %
29.07.2015 15:48 23,6 C 47 % 1008,5 hPa 0,0 l/m 0,0 km/h (0 Bft) O-NO 74 5 min 0,000 mm 2,0 UV-I 475 W/m 11,6 C 23,6 C 0,0 km/h (0 Bft) 0,00 %
29.07.2015 15:53 23,5 C 47 % 1008,5 hPa 0,0 l/m 0,0 km/h (0 Bft) N 9 0 min 0,000 mm 2,0 UV-I 314 W/m 11,5 C 23,5 C 0,0 km/h (0 Bft) 0,00 %
29.07.2015 15:58 23,7 C 47 % 1008,4 hPa 0,0 l/m 0,4 km/h (0 Bft) O-SO 102 0 min 0,000 mm 2,0 UV-I 375 W/m 11,7 C 23,7 C 4,0 km/h (1 Bft) 0,00 %
29.07.2015 16:03 23,8 C 47 % 1008,5 hPa 0,0 l/m 0,0 km/h (0 Bft) NO 46 0 min 0,000 mm 1,0 UV-I 233 W/m 11,8 C 23,8 C 0,0 km/h (0 Bft) 0,00 %
29.07.2015 16:08 23,7 C 49 % 1008,5 hPa 0,0 l/m 0,0 km/h (0 Bft) NO 44 0 min 0,000 mm 1,0 UV-I 89 W/m 12,3 C 23,7 C 0,0 km/h (0 Bft) 0,00 %
29.07.2015 16:13 23,5 C 49 % 1008,6 hPa 0,0 l/m 0,0 km/h (0 Bft) O-NO 62 0 min 0,000 mm 0,0 UV-I 74 W/m 12,2 C 23,5 C 0,0 km/h (0 Bft) 0,00 %
29.07.2015 16:18 22,9 C 52 % 1008,5 hPa 0,0 l/m 0,0 km/h (0 Bft) O 79 0 min 0,000 mm 1,0 UV-I 145 W/m 12,5 C 22,9 C 0,0 km/h (0 Bft) 0,00 %
29.07.2015 16:23 22,4 C 53 % 1008,5 hPa 0,0 l/m 0,0 km/h (0 Bft) NO 51 0 min 0,000 mm 1,0 UV-I 134 W/m 12,3 C 22,4 C 0,0 km/h (0 Bft) 0,00 %
29.07.2015 16:28 22,0 C 53 % 1008,8 hPa 0,0 l/m 0,0 km/h (0 Bft) NO 40 0 min 0,000 mm 0,0 UV-I 74 W/m 12,0 C 22,0 C 0,0 km/h (0 Bft) 0,00 %
29.07.2015 16:33 21,8 C 56 % 1008,8 hPa 0,0 l/m 0,0 km/h (0 Bft) NO 49 0 min 0,000 mm 1,0 UV-I 116 W/m 12,6 C 21,8 C 0,0 km/h (0 Bft) 0,00 %
29.07.2015 16:38 21,5 C 58 % 1008,5 hPa 0,0 l/m 0,0 km/h (0 Bft) NO 44 0 min 0,000 mm 1,0 UV-I 276 W/m 12,9 C 21,5 C 0,0 km/h (0 Bft) 0,00 %
29.07.2015 16:43 21,3 C 59 % 1008,7 hPa 0,0 l/m 1,4 km/h (1 Bft) NO 49 0 min 0,000 mm 1,0 UV-I 166 W/m 13,0 C 21,3 C 4,0 km/h (1 Bft) 0,00 %
29.07.2015 16:48 21,1 C 61 % 1008,8 hPa 0,0 l/m 0,0 km/h (0 Bft) NO 56 0 min 0,000 mm 1,0 UV-I 139 W/m 13,3 C 21,1 C 0,0 km/h (0 Bft) 0,00 %
29.07.2015 16:53 20,9 C 63 % 1008,9 hPa 0,0 l/m 0,0 km/h (0 Bft) NO 51 0 min 0,000 mm 1,0 UV-I 90 W/m 13,6 C 20,9 C 0,0 km/h (0 Bft) 0,00 %
29.07.2015 16:58 20,7 C 60 % 1008,9 hPa 0,0 l/m 0,0 km/h (0 Bft) O-NO 58 0 min 0,000 mm 0,0 UV-I 62 W/m 12,7 C 20,7 C 0,0 km/h (0 Bft) 0,00 %
29.07.2015 17:03 20,5 C 62 % 1009,1 hPa 0,0 l/m 0,0 km/h (0 Bft) O-NO 61 0 min 0,000 mm 0,0 UV-I 28 W/m 13,0 C 20,5 C 0,0 km/h (0 Bft) 0,00 %
29.07.2015 17:08 20,4 C 64 % 1009,2 hPa 0,0 l/m 0,0 km/h (0 Bft) NO 47 0 min 0,000 mm 0,0 UV-I 33 W/m 13,4 C 20,4 C 0,0 km/h (0 Bft) 0,00 %
29.07.2015 17:13 20,2 C 70 % 1009,0 hPa 0,0 l/m 0,0 km/h (0 Bft) NO 50 0 min 0,000 mm 0,0 UV-I 57 W/m 14,5 C 20,2 C 0,0 km/h (0 Bft) 0,00 %
29.07.2015 17:18 19,9 C 72 % 1009,1 hPa 0,0 l/m 0,0 km/h (0 Bft) NO 41 0 min 0,000 mm 1,0 UV-I 90 W/m 14,7 C 19,9 C 0,0 km/h (0 Bft) 0,00 %
29.07.2015 17:23 19,8 C 74 % 1009,4 hPa 0,3 l/m 0,0 km/h (0 Bft) NO 41 0 min 0,000 mm 0,0 UV-I 42 W/m 15,0 C 19,8 C 0,0 km/h (0 Bft) 0,00 %
29.07.2015 17:28 19,6 C 74 % 1009,4 hPa 0,0 l/m 0,0 km/h (0 Bft) NO 38 0 min 0,000 mm 1,0 UV-I 71 W/m 14,8 C 19,6 C 0,0 km/h (0 Bft) 0,00 %
29.07.2015 17:33 19,3 C 76 % 1009,5 hPa 0,0 l/m 0,0 km/h (0 Bft) NO 39 0 min 0,000 mm 0,0 UV-I 56 W/m 15,0 C 19,3 C 0,0 km/h (0 Bft) 0,00 %
29.07.2015 17:38 19,1 C 80 % 1009,4 hPa 0,0 l/m 0,0 km/h (0 Bft) N 354 0 min 0,000 mm 1,0 UV-I 116 W/m 15,6 C 19,1 C 0,0 km/h (0 Bft) 0,00 %
29.07.2015 17:43 19,0 C 81 % 1009,4 hPa 0,0 l/m 0,0 km/h (0 Bft) N-NO 26 0 min 0,000 mm 1,0 UV-I 105 W/m 15,7 C 19,0 C 0,0 km/h (0 Bft) 0,00 %
29.07.2015 17:48 18,9 C 82 % 1009,6 hPa 0,0 l/m 0,0 km/h (0 Bft) N-NW 343 0 min 0,000 mm 1,0 UV-I 106 W/m 15,8 C 18,9 C 0,0 km/h (0 Bft) 0,00 %
29.07.2015 17:53 18,8 C 81 % 1009,7 hPa 0,0 l/m 0,4 km/h (0 Bft) N 349 0 min 0,000 mm 1,0 UV-I 82 W/m 15,5 C 18,8 C 4,0 km/h (1 Bft) 0,00 %
29.07.2015 17:58 18,6 C 82 % 1009,7 hPa 0,0 l/m 0,0 km/h (0 Bft) NO 46 0 min 0,000 mm 1,0 UV-I 105 W/m 15,5 C 18,6 C 0,0 km/h (0 Bft) 0,00 %
29.07.2015 18:03 18,6 C 81 % 1009,2 hPa 0,0 l/m 0,0 km/h (0 Bft) NO 44 0 min 0,000 mm 1,0 UV-I 152 W/m 15,3 C 18,6 C 0,0 km/h (0 Bft) 0,00 %
29.07.2015 18:08 18,6 C 81 % 1009,5 hPa 0,0 l/m 0,0 km/h (0 Bft) W-NW 303 0 min 0,000 mm 0,0 UV-I 72 W/m 15,3 C 18,6 C 0,0 km/h (0 Bft) 0,00 %
29.07.2015 18:13 18,7 C 81 % 1009,7 hPa 0,0 l/m 0,4 km/h (0 Bft) N 356 0 min 0,000 mm 0,0 UV-I 68 W/m 15,4 C 18,7 C 4,0 km/h (1 Bft) 0,00 %
29.07.2015 18:18 18,7 C 80 % 1009,9 hPa 0,0 l/m 0,0 km/h (0 Bft) N-NO 21 0 min 0,000 mm 0,0 UV-I 47 W/m 15,2 C 18,7 C 0,0 km/h (0 Bft) 0,00 %
29.07.2015 18:23 18,5 C 81 % 1009,8 hPa 0,0 l/m 0,0 km/h (0 Bft) N-NO 12 0 min 0,000 mm 0,0 UV-I 54 W/m 15,2 C 18,5 C 0,0 km/h (0 Bft) 0,00 %
29.07.2015 18:28 18,4 C 81 % 1009,7 hPa 0,0 l/m 0,0 km/h (0 Bft) O-NO 70 0 min 0,000 mm 0,0 UV-I 37 W/m 15,1 C 18,4 C 0,0 km/h (0 Bft) 0,00 %
29.07.2015 18:33 18,4 C 82 % 1009,9 hPa 0,0 l/m 0,0 km/h (0 Bft) NO 43 0 min 0,000 mm 0,0 UV-I 43 W/m 15,3 C 18,4 C 0,0 km/h (0 Bft) 0,00 %
29.07.2015 18:38 18,3 C 82 % 1009,8 hPa 0,0 l/m 0,0 km/h (0 Bft) NO 45 0 min 0,000 mm 0,0 UV-I 43 W/m 15,2 C 18,3 C 0,0 km/h (0 Bft) 0,00 %
29.07.2015 18:43 18,2 C 82 % 1009,9 hPa 0,0 l/m 0,0 km/h (0 Bft) NO 45 0 min 0,000 mm 0,0 UV-I 72 W/m 15,1 C 18,2 C 0,0 km/h (0 Bft) 0,00 %
29.07.2015 18:48 18,2 C 82 % 1009,9 hPa 0,0 l/m 0,0 km/h (0 Bft) NO 41 0 min 0,000 mm 0,0 UV-I 94 W/m 15,1 C 18,2 C 0,0 km/h (0 Bft) 0,00 %
29.07.2015 18:53 18,2 C 81 % 1009,7 hPa 0,0 l/m 0,0 km/h (0 Bft) N-NW 340 0 min 0,000 mm 0,0 UV-I 150 W/m 14,9 C 18,2 C 0,0 km/h (0 Bft) 0,00 %
29.07.2015 18:58 18,3 C 82 % 1009,8 hPa 0,0 l/m 0,0 km/h (0 Bft) N-NO 27 5 min 0,000 mm 1,0 UV-I 161 W/m 15,2 C 18,3 C 0,0 km/h (0 Bft) 0,00 %
29.07.2015 19:03 18,6 C 81 % 1009,8 hPa 0,0 l/m 0,0 km/h (0 Bft) NO 51 0 min 0,000 mm 1,0 UV-I 107 W/m 15,3 C 18,6 C 0,0 km/h (0 Bft) 0,00 %
29.07.2015 19:08 18,7 C 80 % 1010,0 hPa 0,0 l/m 0,0 km/h (0 Bft) NO 48 0 min 0,000 mm 1,0 UV-I 109 W/m 15,2 C 18,7 C 0,0 km/h (0 Bft) 0,00 %
29.07.2015 19:13 18,7 C 81 % 1009,7 hPa 0,0 l/m 0,0 km/h (0 Bft) N-NW 345 0 min 0,000 mm 1,0 UV-I 125 W/m 15,4 C 18,7 C 0,0 km/h (0 Bft) 0,00 %
29.07.2015 19:18 18,7 C 80 % 1009,8 hPa 0,0 l/m 0,7 km/h (0 Bft) N-NW 337 5 min 0,000 mm 1,0 UV-I 120 W/m 15,2 C 18,7 C 4,0 km/h (1 Bft) 0,00 %
29.07.2015 19:23 18,6 C 78 % 1010,1 hPa 0,0 l/m 0,4 km/h (0 Bft) W 263 0 min 0,000 mm 0,0 UV-I 81 W/m 14,7 C 18,6 C 4,0 km/h (1 Bft) 0,00 %
29.07.2015 19:28 18,5 C 79 % 1010,1 hPa 0,0 l/m 0,0 km/h (0 Bft) W-NW 284 0 min 0,000 mm 0,0 UV-I 57 W/m 14,8 C 18,5 C 0,0 km/h (0 Bft) 0,00 %
29.07.2015 19:33 18,4 C 79 % 1009,7 hPa 0,0 l/m 1,4 km/h (1 Bft) N-NW 347 0 min 0,000 mm 0,0 UV-I 50 W/m 14,7 C 18,4 C 4,0 km/h (1 Bft) 0,00 %
29.07.2015 19:38 18,2 C 78 % 1009,9 hPa 0,0 l/m 4,3 km/h (1 Bft) W-SW 252 0 min 0,000 mm 0,0 UV-I 26 W/m 14,3 C 18,2 C 7,9 km/h (2 Bft) 0,00 %
29.07.2015 19:43 18,0 C 79 % 1009,9 hPa 0,0 l/m 1,8 km/h (1 Bft) N 358 0 min 0,000 mm 0,0 UV-I 9 W/m 14,3 C 18,0 C 4,0 km/h (1 Bft) 0,00 %
29.07.2015 19:48 17,9 C 80 % 1010,1 hPa 0,0 l/m 0,0 km/h (0 Bft) N-NO 30 0 min 0,000 mm 0,0 UV-I 7 W/m 14,4 C 17,9 C 0,0 km/h (0 Bft) 0,00 %
29.07.2015 19:53 17,8 C 80 % 1010,0 hPa 0,0 l/m 0,0 km/h (0 Bft) O 87 0 min 0,000 mm 0,0 UV-I 7 W/m 14,3 C 17,8 C 0,0 km/h (0 Bft) 0,00 %
29.07.2015 19:58 17,7 C 80 % 1010,1 hPa 0,0 l/m 0,4 km/h (0 Bft) N 357 0 min 0,000 mm 0,0 UV-I 7 W/m 14,2 C 17,7 C 4,0 km/h (1 Bft) 0,00 %
29.07.2015 20:03 17,6 C 81 % 1010,1 hPa 0,0 l/m 0,0 km/h (0 Bft) NO 54 0 min 0,000 mm 0,0 UV-I 3 W/m 14,3 C 17,6 C 0,0 km/h (0 Bft) 0,00 %
29.07.2015 20:08 17,6 C 82 % 1009,5 hPa 0,0 l/m 0,0 km/h (0 Bft) NO 48 0 min 0,000 mm 0,0 UV-I 1 W/m 14,5 C 17,6 C 0,0 km/h (0 Bft) 0,00 %
29.07.2015 20:13 17,5 C 82 % 1009,8 hPa 0,0 l/m 0,0 km/h (0 Bft) W-SW 256 0 min 0,000 mm 0,0 UV-I 0 W/m 14,4 C 17,5 C 0,0 km/h (0 Bft) 0,00 %
29.07.2015 20:18 17,4 C 83 % 1009,7 hPa 0,0 l/m 0,0 km/h (0 Bft) NO 42 0 min 0,000 mm 0,0 UV-I 0 W/m 14,5 C 17,4 C 0,0 km/h (0 Bft) 0,00 %
29.07.2015 20:23 17,3 C 83 % 1009,8 hPa 0,0 l/m 0,0 km/h (0 Bft) NO 41 0 min 0,000 mm 0,0 UV-I 0 W/m 14,4 C 17,3 C 0,0 km/h (0 Bft) 0,00 %
29.07.2015 20:28 17,2 C 84 % 1010,1 hPa 0,0 l/m 0,0 km/h (0 Bft) NO 39 0 min 0,000 mm 0,0 UV-I 0 W/m 14,5 C 17,2 C 0,0 km/h (0 Bft) 0,00 %
29.07.2015 20:33 17,2 C 84 % 1010,0 hPa 0,0 l/m 0,0 km/h (0 Bft) N-NW 329 0 min 0,000 mm 0,0 UV-I 0 W/m 14,5 C 17,2 C 0,0 km/h (0 Bft) 0,00 %
29.07.2015 20:38 17,1 C 84 % 1010,1 hPa 0,0 l/m 0,0 km/h (0 Bft) N-NW 346 0 min 0,000 mm 0,0 UV-I 0 W/m 14,4 C 17,1 C 0,0 km/h (0 Bft) 0,00 %
29.07.2015 20:43 17,1 C 84 % 1010,2 hPa 0,0 l/m 0,0 km/h (0 Bft) N-NW 340 0 min 0,000 mm 0,0 UV-I 0 W/m 14,4 C 17,1 C 0,0 km/h (0 Bft) 0,00 %
29.07.2015 20:48 17,1 C 84 % 1010,2 hPa 0,0 l/m 0,0 km/h (0 Bft) N 355 0 min 0,000 mm 0,0 UV-I 0 W/m 14,4 C 17,1 C 0,0 km/h (0 Bft) 0,00 %
29.07.2015 20:53 17,1 C 84 % 1010,2 hPa 0,0 l/m 0,4 km/h (0 Bft) NW 318 0 min 0,000 mm 0,0 UV-I 0 W/m 14,4 C 17,1 C 4,0 km/h (1 Bft) 0,00 %
29.07.2015 20:58 17,1 C 84 % 1010,3 hPa 0,0 l/m 0,0 km/h (0 Bft) NO 47 0 min 0,000 mm 0,0 UV-I 0 W/m 14,4 C 17,1 C 0,0 km/h (0 Bft) 0,00 %
29.07.2015 21:03 17,0 C 85 % 1010,3 hPa 0,0 l/m 0,0 km/h (0 Bft) O-NO 64 0 min 0,000 mm 0,0 UV-I 0 W/m 14,5 C 17,0 C 0,0 km/h (0 Bft) 0,00 %
29.07.2015 21:08 17,0 C 85 % 1010,4 hPa 0,0 l/m 0,0 km/h (0 Bft) NO 47 0 min 0,000 mm 0,0 UV-I 0 W/m 14,5 C 17,0 C 0,0 km/h (0 Bft) 0,00 %
29.07.2015 21:13 16,9 C 86 % 1010,4 hPa 0,0 l/m 0,0 km/h (0 Bft) N-NW 346 0 min 0,000 mm 0,0 UV-I 0 W/m 14,5 C 16,9 C 0,0 km/h (0 Bft) 0,00 %
29.07.2015 21:18 16,9 C 86 % 1010,6 hPa 0,0 l/m 0,4 km/h (0 Bft) N 355 0 min 0,000 mm 0,0 UV-I 0 W/m 14,5 C 16,9 C 4,0 km/h (1 Bft) 0,00 %
29.07.2015 21:23 16,9 C 88 % 1011,0 hPa 0,3 l/m 2,2 km/h (1 Bft) N-NW 342 0 min 0,000 mm 0,0 UV-I 0 W/m 14,9 C 16,9 C 4,0 km/h (1 Bft) 0,00 %
29.07.2015 21:28 16,8 C 88 % 1011,2 hPa 0,3 l/m 0,4 km/h (0 Bft) NW 305 0 min 0,000 mm 0,0 UV-I 0 W/m 14,8 C 16,8 C 4,0 km/h (1 Bft) 0,00 %
29.07.2015 21:33 16,7 C 89 % 1011,4 hPa 0,6 l/m 0,0 km/h (0 Bft) NO 54 0 min 0,000 mm 0,0 UV-I 0 W/m 14,9 C 16,7 C 0,0 km/h (0 Bft) 0,00 %
29.07.2015 21:38 16,5 C 90 % 1011,0 hPa 0,3 l/m 0,0 km/h (0 Bft) N-NO 25 0 min 0,000 mm 0,0 UV-I 0 W/m 14,9 C 16,5 C 0,0 km/h (0 Bft) 0,00 %
29.07.2015 21:43 16,2 C 91 % 1011,3 hPa 1,8 l/m 0,0 km/h (0 Bft) NO 48 0 min 0,000 mm 0,0 UV-I 0 W/m 14,7 C 16,2 C 0,0 km/h (0 Bft) 0,00 %
29.07.2015 21:48 15,9 C 92 % 1011,4 hPa 0,0 l/m 2,9 km/h (1 Bft) N 355 0 min 0,000 mm 0,0 UV-I 0 W/m 14,6 C 15,9 C 4,0 km/h (1 Bft) 0,00 %
29.07.2015 21:53 15,8 C 93 % 1011,4 hPa 0,0 l/m 0,4 km/h (0 Bft) NO 36 0 min 0,000 mm 0,0 UV-I 0 W/m 14,7 C 15,8 C 4,0 km/h (1 Bft) 0,00 %
29.07.2015 21:58 15,7 C 94 % 1011,5 hPa 0,0 l/m 2,2 km/h (1 Bft) NW 313 0 min 0,000 mm 0,0 UV-I 0 W/m 14,7 C 15,7 C 7,9 km/h (2 Bft) 0,00 %
29.07.2015 22:03 15,7 C 94 % 1011,7 hPa 0,0 l/m 0,7 km/h (0 Bft) NO 39 0 min 0,000 mm 0,0 UV-I 0 W/m 14,7 C 15,7 C 4,0 km/h (1 Bft) 0,00 %
29.07.2015 22:08 15,6 C 94 % 1011,9 hPa 0,0 l/m 0,4 km/h (0 Bft) O-SO 111 0 min 0,000 mm 0,0 UV-I 0 W/m 14,6 C 15,6 C 4,0 km/h (1 Bft) 0,00 %
29.07.2015 22:13 15,6 C 95 % 1011,9 hPa 0,0 l/m 4,0 km/h (1 Bft) W-SW 253 0 min 0,000 mm 0,0 UV-I 0 W/m 14,8 C 15,6 C 7,9 km/h (2 Bft) 0,00 %
29.07.2015 22:18 15,5 C 95 % 1012,1 hPa 0,3 l/m 0,0 km/h (0 Bft) NW 318 0 min 0,000 mm 0,0 UV-I 0 W/m 14,7 C 15,5 C 0,0 km/h (0 Bft) 0,00 %
29.07.2015 22:23 15,4 C 95 % 1012,1 hPa 0,0 l/m 1,8 km/h (1 Bft) NO 45 0 min 0,000 mm 0,0 UV-I 0 W/m 14,6 C 15,4 C 4,0 km/h (1 Bft) 0,00 %
29.07.2015 22:28 15,4 C 95 % 1012,3 hPa 0,0 l/m 0,7 km/h (0 Bft) N-NW 345 0 min 0,000 mm 0,0 UV-I 0 W/m 14,6 C 15,4 C 4,0 km/h (1 Bft) 0,00 %
29.07.2015 22:33 15,2 C 95 % 1012,2 hPa 0,0 l/m 1,4 km/h (1 Bft) N 2 0 min 0,000 mm 0,0 UV-I 0 W/m 14,4 C 15,2 C 4,0 km/h (1 Bft) 0,00 %
29.07.2015 22:38 15,1 C 94 % 1012,3 hPa 0,0 l/m 2,2 km/h (1 Bft) W-SW 256 0 min 0,000 mm 0,0 UV-I 0 W/m 14,1 C 15,1 C 7,9 km/h (2 Bft) 0,00 %
29.07.2015 22:43 15,0 C 94 % 1012,6 hPa 0,0 l/m 0,7 km/h (0 Bft) N-NW 334 0 min 0,000 mm 0,0 UV-I 0 W/m 14,0 C 15,0 C 4,0 km/h (1 Bft) 0,00 %
29.07.2015 22:48 15,0 C 95 % 1012,7 hPa 0,0 l/m 1,4 km/h (1 Bft) W-SW 252 0 min 0,000 mm 0,0 UV-I 0 W/m 14,2 C 15,0 C 4,0 km/h (1 Bft) 0,00 %
29.07.2015 22:53 14,8 C 95 % 1012,8 hPa 0,0 l/m 1,4 km/h (1 Bft) N 357 0 min 0,000 mm 0,0 UV-I 0 W/m 14,0 C 14,8 C 4,0 km/h (1 Bft) 0,00 %
29.07.2015 22:58 14,8 C 94 % 1012,8 hPa 0,3 l/m 3,2 km/h (1 Bft) N-NW 332 0 min 0,000 mm 0,0 UV-I 0 W/m 13,8 C 14,8 C 7,9 km/h (2 Bft) 0,00 %
29.07.2015 23:03 14,7 C 94 % 1013,2 hPa 0,0 l/m 2,2 km/h (1 Bft) N-NW 341 0 min 0,000 mm 0,0 UV-I 0 W/m 13,7 C 14,7 C 4,0 km/h (1 Bft) 0,00 %
29.07.2015 23:08 14,7 C 94 % 1013,0 hPa 0,0 l/m 0,0 km/h (0 Bft) NO 49 0 min 0,000 mm 0,0 UV-I 0 W/m 13,7 C 14,7 C 0,0 km/h (0 Bft) 0,00 %
29.07.2015 23:13 14,6 C 94 % 1013,1 hPa 0,0 l/m 0,0 km/h (0 Bft) N-NW 339 0 min 0,000 mm 0,0 UV-I 0 W/m 13,6 C 14,6 C 0,0 km/h (0 Bft) 0,00 %
29.07.2015 23:18 14,6 C 93 % 1013,4 hPa 0,0 l/m 5,4 km/h (1 Bft) W-SW 257 0 min 0,000 mm 0,0 UV-I 0 W/m 13,5 C 14,6 C 7,9 km/h (2 Bft) 0,00 %
29.07.2015 23:23 14,5 C 93 % 1013,3 hPa 0,0 l/m 0,4 km/h (0 Bft) O-NO 67 0 min 0,000 mm 0,0 UV-I 0 W/m 13,4 C 14,5 C 4,0 km/h (1 Bft) 0,00 %
29.07.2015 23:28 14,5 C 93 % 1013,4 hPa 0,0 l/m 0,0 km/h (0 Bft) NO 47 0 min 0,000 mm 0,0 UV-I 0 W/m 13,4 C 14,5 C 0,0 km/h (0 Bft) 0,00 %
29.07.2015 23:33 14,4 C 93 % 1013,5 hPa 0,0 l/m 0,7 km/h (0 Bft) W-SW 255 0 min 0,000 mm 0,0 UV-I 0 W/m 13,3 C 14,4 C 4,0 km/h (1 Bft) 0,00 %
29.07.2015 23:38 14,4 C 93 % 1013,8 hPa 0,0 l/m 0,0 km/h (0 Bft) NO 40 0 min 0,000 mm 0,0 UV-I 0 W/m 13,3 C 14,4 C 0,0 km/h (0 Bft) 0,00 %
29.07.2015 23:43 14,4 C 93 % 1013,8 hPa 0,0 l/m 0,4 km/h (0 Bft) SW 216 0 min 0,000 mm 0,0 UV-I 0 W/m 13,3 C 14,4 C 4,0 km/h (1 Bft) 0,00 %
29.07.2015 23:48 14,4 C 93 % 1013,9 hPa 0,0 l/m 3,2 km/h (1 Bft) SW 234 0 min 0,000 mm 0,0 UV-I 0 W/m 13,3 C 14,4 C 4,0 km/h (1 Bft) 0,00 %
29.07.2015 23:53 14,3 C 93 % 1013,9 hPa 0,0 l/m 0,0 km/h (0 Bft) NO 34 0 min 0,000 mm 0,0 UV-I 0 W/m 13,2 C 14,3 C 0,0 km/h (0 Bft) 0,00 %
29.07.2015 23:58 14,3 C 93 % 1014,1 hPa 0,0 l/m 0,4 km/h (0 Bft) N 351 0 min 0,000 mm 0,0 UV-I 0 W/m 13,2 C 14,3 C 4,0 km/h (1 Bft) 0,00 %
_ Min-Zeit 04:37 15:38 15:28 - 00:12 - - - - - - 02:12 04:37 00:12 00:02
Minimum _ 11,3 C 46 % 1008,3 hPa - 0,0 km/h (0 Bft) - - - - - - 10,2 C 11,3 C 0,0 km/h (0 Bft) 0,00 %
_ Max-Zeit 16:03 04:52 23:58 21:43 15:23 - - 13:13 00:02 12:52 11:22 17:48 16:03 02:47 00:02
Maximum _ 23,8 C 97 % 1014,1 hPa 1,8 l/m 9,4 km/h
SO (2 Bft)
- - 6 min 0,000 mm 6,0 UV-I 1127 W/m 15,8 C 23,8 C 11,9 km/h
NW (2 Bft)
0,00 %
Durchschnitt _ 16,9 C 77 % 1011,2 hPa #10,2 l/m 0,6 km/h (0 Bft) W-SW - #6:36 h #0,000 mm 2,6 UV-I 369 W/m 12,3 C 16,9 C 1,7 km/h (1 Bft) 0,00 %